Simultaneous Nadir Overpasses (SNOs) Predictions

Prediction of SNOs between GOES-15 and METOP-B Satellite Orbit:

Table of predicted SNOs for the next 14.0 days since TLE Epoch: 3/23/2024
Index Date Time (GOES-15) GOES-15 Lat,Lon METOP-B Lat,Lon Distance(km) Time Diff (sec)
1 03/23/2024 17:22:58 0.04, 61.18 -0.05, 60.74 50.20 80
2 03/26/2024 05:18:31 -0.04, 61.22 -0.04, 61.15 8.01 80
3 03/28/2024 17:16:51 0.05, 61.19 0.12, 61.53 38.60 80
4 03/30/2024 05:35:44 -0.06, 61.25 0.87, 56.95 489.33 80
5 03/31/2024 05:17:44 -0.06, 61.26 -0.24, 61.94 78.21 80
6 04/01/2024 17:36:45 0.07, 61.24 -0.76, 57.33 443.96 80
7 04/02/2024 17:13:24 0.07, 61.25 0.30, 62.33 122.83 80
8 04/04/2024 05:32:15 -0.08, 61.33 0.73, 57.77 406.54 80
9 04/05/2024 05:14:16 -0.08, 61.34 -0.39, 62.75 160.59 80
